Time,TemperatureF,DewpointF,PressureIn,WindDirection,WindDirectionDegrees,WindSpeedMPH,WindSpeedGustMPH,Humidity,HourlyPrecipIn,Conditions,Clouds,dailyrainin,SoftwareType,DateUTC
2013-10-03 00:01:00,64.0,61.0,30.07,SSW,198,0.0,0.0,90,0.00,,,0.00,meteobridge,2013-10-03 04:01:00,
2013-10-03 00:03:00,64.0,61.0,30.07,SSW,198,0.0,0.0,90,0.00,,,0.00,meteobridge,2013-10-03 04:03:00,
2013-10-03 00:05:00,64.0,61.7,30.07,SSW,198,0.0,0.0,92,0.00,,,0.00,meteobridge,2013-10-03 04:05:00,
2013-10-03 00:06:00,64.0,61.3,30.07,SSW,198,0.0,0.0,91,0.00,,,0.00,meteobridge,2013-10-03 04:06:00,
2013-10-03 00:11:00,64.0,61.3,30.07,SSW,198,0.0,0.0,91,0.00,,,0.00,meteobridge,2013-10-03 04:11:00,
2013-10-03 00:16:00,64.0,61.3,30.07,SSW,198,0.0,0.0,91,0.00,,,0.00,meteobridge,2013-10-03 04:16:00,
2013-10-03 00:21:00,64.0,61.3,30.08,SSW,198,0.0,0.0,91,0.00,,,0.00,meteobridge,2013-10-03 04:21:00,
2013-10-03 00:26:00,64.0,61.3,30.08,SSW,198,0.0,0.0,91,0.00,,,0.00,meteobridge,2013-10-03 04:26:00,
2013-10-03 00:31:00,64.0,61.3,30.07,SSW,198,0.0,0.0,91,0.00,,,0.00,meteobridge,2013-10-03 04:31:00,
2013-10-03 00:36:00,64.0,61.3,30.08,SSW,198,0.0,0.0,91,0.00,,,0.00,meteobridge,2013-10-03 04:36:00,
2013-10-03 00:41:00,64.2,61.5,30.08,SSW,198,0.0,0.0,91,0.00,,,0.00,meteobridge,2013-10-03 04:41:00,
2013-10-03 00:46:00,64.2,61.5,30.08,SSW,198,0.0,0.0,91,0.00,,,0.00,meteobridge,2013-10-03 04:46:00,
2013-10-03 00:52:00,64.2,61.5,30.08,SSW,198,0.0,0.0,91,0.00,,,0.00,meteobridge,2013-10-03 04:52:00,
2013-10-03 00:57:00,64.0,61.3,30.08,SSW,198,0.0,0.0,91,0.00,,,0.00,meteobridge,2013-10-03 04:57:00,
2013-10-03 01:02:00,64.0,61.3,30.08,SSW,198,0.0,0.0,91,0.00,,,0.00,meteobridge,2013-10-03 05:02:00,
2013-10-03 01:07:00,64.0,61.0,30.08,SSW,198,0.0,0.0,90,0.00,,,0.00,meteobridge,2013-10-03 05:07:00,
2013-10-03 01:13:00,63.9,61.2,30.08,SSW,198,0.0,0.0,91,0.00,,,0.00,meteobridge,2013-10-03 05:13:00,
2013-10-03 01:18:00,63.7,61.0,30.09,SSW,198,0.0,0.0,91,0.00,,,0.00,meteobridge,2013-10-03 05:18:00,
2013-10-03 01:23:00,63.7,61.0,30.09,SSW,198,0.0,0.0,91,0.00,,,0.00,meteobridge,2013-10-03 05:23:00,
2013-10-03 01:28:00,63.5,60.8,30.09,SSW,198,0.0,0.0,91,0.00,,,0.00,meteobridge,2013-10-03 05:28:00,
2013-10-03 01:33:00,63.3,60.6,30.09,SSW,198,0.0,0.0,91,0.00,,,0.00,meteobridge,2013-10-03 05:33:00,
2013-10-03 01:38:00,63.1,60.4,30.09,SSW,198,0.0,0.0,91,0.00,,,0.00,meteobridge,2013-10-03 05:38:00,
2013-10-03 01:44:00,63.1,60.8,30.09,SSW,198,0.0,0.0,92,0.00,,,0.00,meteobridge,2013-10-03 05:44:00,
2013-10-03 01:49:00,63.0,60.6,30.09,SSW,198,0.0,0.0,92,0.00,,,0.00,meteobridge,2013-10-03 05:49:00,
2013-10-03 01:54:00,62.8,60.4,30.09,SSW,198,0.0,0.0,92,0.00,,,0.00,meteobridge,2013-10-03 05:54:00,
2013-10-03 01:59:00,62.8,60.4,30.09,SSW,198,0.0,0.0,92,0.00,,,0.00,meteobridge,2013-10-03 05:59:00,
2013-10-03 02:04:00,62.8,60.4,30.09,SSW,198,0.0,0.0,92,0.00,,,0.00,meteobridge,2013-10-03 06:04:00,
2013-10-03 02:10:00,62.4,60.1,30.09,SSW,198,0.0,0.0,92,0.00,,,0.00,meteobridge,2013-10-03 06:10:00,
2013-10-03 02:15:00,62.4,60.4,30.09,SSW,198,0.0,0.0,93,0.00,,,0.00,meteobridge,2013-10-03 06:15:00,
2013-10-03 02:20:00,62.2,59.9,30.09,SSW,198,0.0,0.0,92,0.00,,,0.00,meteobridge,2013-10-03 06:20:00,
2013-10-03 02:25:00,62.1,60.1,30.09,SSW,198,0.0,0.0,93,0.00,,,0.00,meteobridge,2013-10-03 06:25:00,
2013-10-03 02:30:00,61.9,59.9,30.09,SSW,198,0.0,0.0,93,0.00,,,0.00,meteobridge,2013-10-03 06:30:00,
2013-10-03 02:35:00,61.9,59.9,30.09,SSW,198,0.0,0.0,93,0.00,,,0.00,meteobridge,2013-10-03 06:35:00,
2013-10-03 02:41:00,61.9,60.1,30.09,SSW,198,0.0,0.0,94,0.00,,,0.00,meteobridge,2013-10-03 06:41:00,
2013-10-03 02:46:00,61.9,59.9,30.09,SSW,198,0.0,0.0,93,0.00,,,0.00,meteobridge,2013-10-03 06:46:00,
2013-10-03 02:51:00,61.7,59.7,30.09,SSW,198,0.0,0.0,93,0.00,,,0.00,meteobridge,2013-10-03 06:51:00,
2013-10-03 02:56:00,61.5,59.7,30.09,SSW,198,0.0,0.0,94,0.00,,,0.00,meteobridge,2013-10-03 06:56:00,
2013-10-03 03:01:00,61.5,59.7,30.09,SSW,198,0.0,0.0,94,0.00,,,0.00,meteobridge,2013-10-03 07:01:00,
2013-10-03 03:06:00,61.3,59.5,30.09,SSW,198,0.0,0.0,94,0.00,,,0.00,meteobridge,2013-10-03 07:06:00,
2013-10-03 03:12:00,61.3,59.5,30.09,SSW,198,0.0,0.0,94,0.00,,,0.00,meteobridge,2013-10-03 07:12:00,
2013-10-03 03:17:00,61.3,59.5,30.10,SSW,198,0.0,0.0,94,0.00,,,0.00,meteobridge,2013-10-03 07:17:00,
2013-10-03 03:22:00,61.2,59.4,30.10,SSW,198,0.0,0.0,94,0.00,,,0.00,meteobridge,2013-10-03 07:22:00,
2013-10-03 03:27:00,61.0,59.2,30.10,SSW,198,0.0,0.0,94,0.00,,,0.00,meteobridge,2013-10-03 07:27:00,
2013-10-03 03:32:00,60.8,59.0,30.10,SSW,198,0.0,0.0,94,0.00,,,0.00,meteobridge,2013-10-03 07:32:00,
2013-10-03 03:37:00,60.8,59.4,30.11,SSW,198,0.0,0.0,95,0.00,,,0.00,meteobridge,2013-10-03 07:37:00,
2013-10-03 03:42:00,60.6,58.8,30.11,SSW,198,0.0,0.0,94,0.00,,,0.00,meteobridge,2013-10-03 07:42:00,
2013-10-03 03:47:00,60.4,58.6,30.11,SSW,198,0.0,0.0,94,0.00,,,0.00,meteobridge,2013-10-03 07:47:00,
2013-10-03 03:53:00,60.4,58.6,30.11,SSW,198,0.0,0.0,94,0.00,,,0.00,meteobridge,2013-10-03 07:53:00,
2013-10-03 03:58:00,60.3,58.8,30.11,SSW,198,0.0,0.0,95,0.00,,,0.00,meteobridge,2013-10-03 07:58:00,
2013-10-03 04:03:00,60.3,58.8,30.11,SSW,198,0.0,0.0,95,0.00,,,0.00,meteobridge,2013-10-03 08:03:00,
2013-10-03 04:08:00,60.3,58.8,30.11,SSW,198,0.0,0.0,95,0.00,,,0.00,meteobridge,2013-10-03 08:08:00,
2013-10-03 04:13:00,60.1,58.6,30.11,SSW,198,0.0,0.0,95,0.00,,,0.00,meteobridge,2013-10-03 08:13:00,
2013-10-03 04:18:00,60.1,58.6,30.11,SSW,198,0.0,0.0,95,0.00,,,0.00,meteobridge,2013-10-03 08:18:00,
2013-10-03 04:24:00,59.7,58.3,30.11,SSW,198,0.0,0.0,95,0.00,,,0.00,meteobridge,2013-10-03 08:24:00,
2013-10-03 04:29:00,59.7,58.3,30.11,SSW,198,0.0,0.0,95,0.00,,,0.00,meteobridge,2013-10-03 08:29:00,
2013-10-03 04:34:00,59.7,58.3,30.11,SSW,198,0.0,0.0,95,0.00,,,0.00,meteobridge,2013-10-03 08:34:00,
2013-10-03 04:39:00,59.7,58.3,30.11,SSW,198,0.0,0.0,95,0.00,,,0.00,meteobridge,2013-10-03 08:39:00,
2013-10-03 04:44:00,59.5,58.1,30.11,SSW,198,0.0,0.0,95,0.00,,,0.00,meteobridge,2013-10-03 08:44:00,
2013-10-03 04:50:00,59.5,58.1,30.11,SSW,198,0.0,0.0,95,0.00,,,0.00,meteobridge,2013-10-03 08:50:00,
2013-10-03 04:55:00,59.5,58.1,30.11,SSW,198,0.0,0.0,95,0.00,,,0.00,meteobridge,2013-10-03 08:55:00,
2013-10-03 05:00:00,59.5,58.1,30.11,SSW,198,0.0,0.0,95,0.00,,,0.00,meteobridge,2013-10-03 09:00:00,
2013-10-03 05:05:00,59.5,58.1,30.11,SSW,198,0.0,0.0,95,0.00,,,0.00,meteobridge,2013-10-03 09:05:00,
2013-10-03 05:10:00,59.4,58.3,30.11,SSW,198,0.0,0.0,96,0.00,,,0.00,meteobridge,2013-10-03 09:10:00,
2013-10-03 05:16:00,59.4,57.9,30.11,SSW,198,0.0,0.0,95,0.00,,,0.00,meteobridge,2013-10-03 09:16:00,
2013-10-03 05:21:00,59.2,57.7,30.11,SSW,198,0.0,0.0,95,0.00,,,0.00,meteobridge,2013-10-03 09:21:00,
2013-10-03 05:26:00,58.8,57.4,30.11,SSW,198,0.0,0.0,95,0.00,,,0.00,meteobridge,2013-10-03 09:26:00,
2013-10-03 05:31:00,58.6,57.2,30.12,SSW,198,0.0,0.0,95,0.00,,,0.00,meteobridge,2013-10-03 09:31:00,
2013-10-03 05:36:00,58.6,57.2,30.12,SSW,198,0.0,0.0,95,0.00,,,0.00,meteobridge,2013-10-03 09:36:00,
2013-10-03 05:41:00,58.6,57.6,30.12,SSW,198,0.0,0.0,96,0.00,,,0.00,meteobridge,2013-10-03 09:41:00,
2013-10-03 05:47:00,58.6,57.6,30.12,SSW,198,0.0,0.0,96,0.00,,,0.00,meteobridge,2013-10-03 09:47:00,
2013-10-03 05:52:00,58.6,57.6,30.12,SSW,198,0.0,0.0,96,0.00,,,0.00,meteobridge,2013-10-03 09:52:00,
2013-10-03 05:57:00,58.5,57.4,30.12,SSW,198,0.0,0.0,96,0.00,,,0.00,meteobridge,2013-10-03 09:57:00,
2013-10-03 06:02:00,58.5,57.4,30.13,SSW,198,0.0,0.0,96,0.00,,,0.00,meteobridge,2013-10-03 10:02:00,
2013-10-03 06:07:00,58.5,57.4,30.13,SSW,198,0.0,0.0,96,0.00,,,0.00,meteobridge,2013-10-03 10:07:00,
2013-10-03 06:12:00,58.5,57.4,30.13,SSW,198,0.0,0.0,96,0.00,,,0.00,meteobridge,2013-10-03 10:12:00,
2013-10-03 06:18:00,58.5,57.4,30.13,SSW,198,0.0,0.0,96,0.00,,,0.00,meteobridge,2013-10-03 10:18:00,
2013-10-03 06:23:00,58.5,57.4,30.13,SSW,198,0.0,0.0,96,0.00,,,0.00,meteobridge,2013-10-03 10:23:00,
2013-10-03 06:28:00,58.3,57.2,30.13,SSW,198,0.0,0.0,96,0.00,,,0.00,meteobridge,2013-10-03 10:28:00,
2013-10-03 06:33:00,58.1,57.0,30.13,SSW,198,0.0,0.0,96,0.00,,,0.00,meteobridge,2013-10-03 10:33:00,
2013-10-03 06:38:00,57.9,56.8,30.14,SSW,198,0.0,0.0,96,0.00,,,0.00,meteobridge,2013-10-03 10:38:00,
2013-10-03 06:43:00,57.9,56.8,30.14,SSW,198,0.0,0.0,96,0.00,,,0.00,meteobridge,2013-10-03 10:43:00,
2013-10-03 06:49:00,57.9,56.8,30.14,SSW,198,0.0,0.0,96,0.00,,,0.00,meteobridge,2013-10-03 10:49:00,
2013-10-03 06:54:00,57.7,56.7,30.14,SSW,198,0.0,0.0,96,0.00,,,0.00,meteobridge,2013-10-03 10:54:00,
2013-10-03 06:59:00,57.6,56.5,30.14,SSW,198,0.0,0.0,96,0.00,,,0.00,meteobridge,2013-10-03 10:59:00,
2013-10-03 07:04:00,57.6,56.5,30.14,SSW,198,0.0,0.0,96,0.00,,,0.00,meteobridge,2013-10-03 11:04:00,
2013-10-03 07:09:00,57.4,56.3,30.14,SSW,198,0.0,0.0,96,0.00,,,0.00,meteobridge,2013-10-03 11:09:00,
2013-10-03 07:14:00,57.4,56.3,30.14,SSW,198,0.0,0.0,96,0.00,,,0.00,meteobridge,2013-10-03 11:14:00,
2013-10-03 07:20:00,57.2,56.1,30.14,SSW,198,0.0,0.0,96,0.00,,,0.00,meteobridge,2013-10-03 11:20:00,
2013-10-03 07:25:00,57.2,56.1,30.14,SSW,198,0.0,0.0,96,0.00,,,0.00,meteobridge,2013-10-03 11:25:00,
2013-10-03 07:30:00,57.4,56.3,30.15,SSW,198,0.0,0.0,96,0.00,,,0.00,meteobridge,2013-10-03 11:30:00,
2013-10-03 07:35:00,57.4,56.3,30.15,SSW,198,0.0,0.0,96,0.00,,,0.00,meteobridge,2013-10-03 11:35:00,
2013-10-03 07:40:00,57.4,56.3,30.15,SSW,198,0.0,0.0,96,0.00,,,0.00,meteobridge,2013-10-03 11:40:00,
2013-10-03 07:45:00,57.6,56.5,30.15,SSW,198,0.0,0.0,96,0.00,,,0.00,meteobridge,2013-10-03 11:45:00,
2013-10-03 07:51:00,57.6,56.7,30.16,SSW,198,0.0,0.0,97,0.00,,,0.00,meteobridge,2013-10-03 11:51:00,
2013-10-03 07:56:00,57.9,57.0,30.16,SSW,198,0.0,0.0,97,0.00,,,0.00,meteobridge,2013-10-03 11:56:00,
2013-10-03 08:01:00,58.3,57.4,30.16,SSW,198,0.0,0.0,97,0.00,,,0.00,meteobridge,2013-10-03 12:01:00,
2013-10-03 08:06:00,58.5,57.6,30.16,SSW,198,0.0,0.0,97,0.00,,,0.00,meteobridge,2013-10-03 12:06:00,
2013-10-03 08:11:00,58.6,57.7,30.16,SSW,198,0.0,0.0,97,0.00,,,0.00,meteobridge,2013-10-03 12:11:00,
2013-10-03 08:16:00,59.2,58.3,30.16,SSW,198,0.0,0.0,97,0.00,,,0.00,meteobridge,2013-10-03 12:16:00,
2013-10-03 08:22:00,59.5,58.6,30.16,SSW,198,0.0,0.0,97,0.00,,,0.00,meteobridge,2013-10-03 12:22:00,
2013-10-03 08:27:00,59.9,59.0,30.16,SSW,198,0.0,0.0,97,0.00,,,0.00,meteobridge,2013-10-03 12:27:00,
2013-10-03 08:32:00,60.3,59.7,30.17,SSW,198,0.0,0.0,98,0.00,,,0.00,meteobridge,2013-10-03 12:32:00,
2013-10-03 08:37:00,60.6,59.7,30.17,SSW,198,0.0,0.0,97,0.00,,,0.00,meteobridge,2013-10-03 12:37:00,
2013-10-03 08:42:00,61.2,60.3,30.17,SSW,198,0.0,0.0,97,0.00,,,0.00,meteobridge,2013-10-03 12:42:00,
2013-10-03 08:47:00,61.5,61.0,30.17,SSW,198,0.0,0.0,98,0.00,,,0.00,meteobridge,2013-10-03 12:47:00,
2013-10-03 08:53:00,62.2,61.7,30.17,NW,313,0.0,2.0,98,0.00,,,0.00,meteobridge,2013-10-03 12:53:00,
2013-10-03 08:58:00,63.0,62.4,30.17,NW,313,0.0,0.9,98,0.00,,,0.00,meteobridge,2013-10-03 12:58:00,
2013-10-03 09:03:00,63.7,63.1,30.17,NW,313,0.0,2.0,98,0.00,,,0.00,meteobridge,2013-10-03 13:03:00,
2013-10-03 09:08:00,64.2,63.3,30.17,NW,313,0.0,0.0,97,0.00,,,0.00,meteobridge,2013-10-03 13:08:00,
2013-10-03 09:13:00,64.8,63.3,30.17,NW,313,0.0,0.9,95,0.00,,,0.00,meteobridge,2013-10-03 13:13:00,
2013-10-03 09:19:00,65.5,63.3,30.17,NW,313,0.0,0.9,93,0.00,,,0.00,meteobridge,2013-10-03 13:19:00,
2013-10-03 09:24:00,66.6,64.2,30.17,NW,313,0.0,0.0,92,0.00,,,0.00,meteobridge,2013-10-03 13:24:00,
2013-10-03 09:29:00,67.5,64.4,30.18,NW,313,0.0,0.0,90,0.00,,,0.00,meteobridge,2013-10-03 13:29:00,
2013-10-03 09:34:00,68.2,63.1,30.18,NW,313,0.0,2.0,84,0.00,,,0.00,meteobridge,2013-10-03 13:34:00,
2013-10-03 09:39:00,68.5,62.4,30.18,NW,313,0.0,0.0,81,0.00,,,0.00,meteobridge,2013-10-03 13:39:00,
2013-10-03 09:44:00,69.6,62.4,30.18,NW,313,0.0,0.0,78,0.00,,,0.00,meteobridge,2013-10-03 13:44:00,
2013-10-03 09:49:00,70.3,62.4,30.18,NW,313,2.0,2.0,76,0.00,,,0.00,meteobridge,2013-10-03 13:49:00,
2013-10-03 09:55:00,71.1,62.4,30.18,NW,313,0.0,0.0,74,0.00,,,0.00,meteobridge,2013-10-03 13:55:00,
2013-10-03 10:00:00,71.6,62.1,30.18,NNE,17,0.9,4.0,72,0.00,,,0.00,meteobridge,2013-10-03 14:00:00,
2013-10-03 10:05:00,72.0,61.2,30.18,NNE,17,0.0,2.0,69,0.00,,,0.00,meteobridge,2013-10-03 14:05:00,
2013-10-03 10:10:00,72.3,62.8,30.17,NNE,17,0.0,0.9,72,0.00,,,0.00,meteobridge,2013-10-03 14:10:00,
2013-10-03 10:15:00,73.2,62.8,30.17,NNE,17,0.0,0.0,70,0.00,,,0.00,meteobridge,2013-10-03 14:15:00,
2013-10-03 10:20:00,74.1,62.4,30.17,NNE,17,0.0,0.0,67,0.00,,,0.00,meteobridge,2013-10-03 14:20:00,
2013-10-03 10:26:00,74.5,61.0,30.17,NNE,17,0.0,0.9,63,0.00,,,0.00,meteobridge,2013-10-03 14:26:00,
2013-10-03 10:31:00,74.8,61.3,30.17,ESE,109,0.0,2.0,63,0.00,,,0.00,meteobridge,2013-10-03 14:31:00,
2013-10-03 10:36:00,74.8,58.6,30.17,SE,131,0.9,4.0,57,0.00,,,0.00,meteobridge,2013-10-03 14:36:00,
2013-10-03 10:41:00,74.5,59.2,30.17,SE,134,0.0,0.9,59,0.00,,,0.00,meteobridge,2013-10-03 14:41:00,
2013-10-03 10:46:00,74.7,58.5,30.17,SE,140,0.0,0.9,57,0.00,,,0.00,meteobridge,2013-10-03 14:46:00,
2013-10-03 10:51:00,74.7,56.5,30.17,SSE,149,0.0,0.9,53,0.00,,,0.00,meteobridge,2013-10-03 14:51:00,
2013-10-03 10:56:00,74.8,56.1,30.17,SSE,149,0.0,0.9,52,0.00,,,0.00,meteobridge,2013-10-03 14:56:00,
2013-10-03 11:01:00,75.0,56.1,30.17,SSE,149,0.0,4.0,52,0.00,,,0.00,meteobridge,2013-10-03 15:01:00,
2013-10-03 11:06:00,75.0,57.2,30.17,SSE,149,0.0,0.9,54,0.00,,,0.00,meteobridge,2013-10-03 15:06:00,
2013-10-03 11:11:00,75.4,56.5,30.17,SSE,149,0.0,2.0,52,0.00,,,0.00,meteobridge,2013-10-03 15:11:00,
2013-10-03 11:17:00,75.0,57.7,30.17,South,184,0.0,2.0,55,0.00,,,0.00,meteobridge,2013-10-03 15:17:00,
2013-10-03 11:22:00,75.2,56.8,30.17,South,184,2.0,2.0,53,0.00,,,0.00,meteobridge,2013-10-03 15:22:00,
2013-10-03 11:27:00,75.4,56.5,30.17,South,178,0.0,4.0,52,0.00,,,0.00,meteobridge,2013-10-03 15:27:00,
2013-10-03 11:32:00,75.4,57.6,30.17,South,178,0.0,4.0,54,0.00,,,0.00,meteobridge,2013-10-03 15:32:00,
2013-10-03 11:37:00,75.4,55.9,30.16,ESE,117,4.0,4.0,51,0.00,,,0.00,meteobridge,2013-10-03 15:37:00,
2013-10-03 11:42:00,75.6,56.7,30.16,ESE,117,0.0,2.0,52,0.00,,,0.00,meteobridge,2013-10-03 15:42:00,
2013-10-03 11:47:00,75.7,57.4,30.16,ESE,115,0.0,4.0,53,0.00,,,0.00,meteobridge,2013-10-03 15:47:00,
2013-10-03 11:53:00,75.7,57.4,30.16,SE,133,0.0,0.9,53,0.00,,,0.00,meteobridge,2013-10-03 15:53:00,
2013-10-03 11:58:00,75.9,57.6,30.16,SE,144,0.0,4.0,53,0.00,,,0.00,meteobridge,2013-10-03 15:58:00,
2013-10-03 12:03:00,76.3,58.5,30.16,SSE,153,4.9,4.9,54,0.00,,,0.00,meteobridge,2013-10-03 16:03:00,
2013-10-03 12:08:00,76.5,58.6,30.16,West,271,0.9,4.0,54,0.00,,,0.00,meteobridge,2013-10-03 16:08:00,
2013-10-03 12:13:00,77.0,58.6,30.16,SSE,159,4.9,6.9,53,0.00,,,0.00,meteobridge,2013-10-03 16:13:00,
2013-10-03 12:18:00,76.3,57.9,30.16,SSE,149,4.0,4.0,53,0.00,,,0.00,meteobridge,2013-10-03 16:18:00,
2013-10-03 12:23:00,75.7,58.5,30.16,ESE,110,0.0,4.9,55,0.00,,,0.00,meteobridge,2013-10-03 16:23:00,
2013-10-03 12:28:00,75.9,59.2,30.16,ESE,103,0.9,4.0,56,0.00,,,0.00,meteobridge,2013-10-03 16:28:00,
2013-10-03 12:33:00,76.5,59.5,30.15,SSW,193,4.9,4.9,56,0.00,,,0.00,meteobridge,2013-10-03 16:33:00,
2013-10-03 12:38:00,76.3,58.5,30.15,SW,225,2.0,4.0,54,0.00,,,0.00,meteobridge,2013-10-03 16:38:00,
2013-10-03 12:43:00,76.5,58.1,30.15,SSW,193,2.0,2.9,53,0.00,,,0.00,meteobridge,2013-10-03 16:43:00,
2013-10-03 12:48:00,76.8,59.4,30.15,SSW,193,0.9,0.9,55,0.00,,,0.00,meteobridge,2013-10-03 16:48:00,
2013-10-03 12:53:00,76.6,59.7,30.15,South,169,0.9,2.0,56,0.00,,,0.00,meteobridge,2013-10-03 16:53:00,
2013-10-03 12:59:00,76.5,58.1,30.14,South,169,0.0,2.0,53,0.00,,,0.00,meteobridge,2013-10-03 16:59:00,
2013-10-03 13:04:00,77.0,59.5,30.14,SSE,168,0.0,2.0,55,0.00,,,0.00,meteobridge,2013-10-03 17:04:00,
2013-10-03 13:09:00,77.5,59.0,30.14,SSW,213,0.0,6.0,53,0.00,,,0.00,meteobridge,2013-10-03 17:09:00,
2013-10-03 13:14:00,77.5,59.5,30.14,ESE,119,0.9,4.9,54,0.00,,,0.00,meteobridge,2013-10-03 17:14:00,
2013-10-03 13:19:00,77.9,59.4,30.14,West,263,0.0,6.0,53,0.00,,,0.00,meteobridge,2013-10-03 17:19:00,
2013-10-03 13:24:00,78.1,59.0,30.13,SE,146,0.9,4.9,52,0.00,,,0.00,meteobridge,2013-10-03 17:24:00,
2013-10-03 13:29:00,78.3,59.2,30.13,South,191,0.0,4.0,52,0.00,,,0.00,meteobridge,2013-10-03 17:29:00,
2013-10-03 13:34:00,78.6,59.5,30.13,SSW,211,2.0,4.0,52,0.00,,,0.00,meteobridge,2013-10-03 17:34:00,
2013-10-03 13:39:00,78.6,58.5,30.13,SW,225,0.9,4.0,50,0.00,,,0.00,meteobridge,2013-10-03 17:39:00,
2013-10-03 13:44:00,78.6,59.0,30.13,WSW,238,2.0,8.1,51,0.00,,,0.00,meteobridge,2013-10-03 17:44:00,
2013-10-03 13:49:00,78.3,58.1,30.13,SW,227,2.0,6.9,50,0.00,,,0.00,meteobridge,2013-10-03 17:49:00,
2013-10-03 13:54:00,77.5,57.4,30.12,SW,214,2.9,6.9,50,0.00,,,0.00,meteobridge,2013-10-03 17:54:00,
2013-10-03 13:59:00,76.8,57.4,30.12,SSE,156,0.9,6.9,51,0.00,,,0.00,meteobridge,2013-10-03 17:59:00,
2013-10-03 14:04:00,76.1,58.3,30.12,South,171,0.0,4.0,54,0.00,,,0.00,meteobridge,2013-10-03 18:04:00,
2013-10-03 14:09:00,75.9,57.6,30.12,SSE,154,2.0,8.9,53,0.00,,,0.00,meteobridge,2013-10-03 18:09:00,
2013-10-03 14:14:00,75.6,57.7,30.12,South,176,2.0,4.9,54,0.00,,,0.00,meteobridge,2013-10-03 18:14:00,
2013-10-03 14:19:00,75.6,58.3,30.12,SSW,201,4.9,6.9,55,0.00,,,0.00,meteobridge,2013-10-03 18:19:00,
2013-10-03 14:24:00,75.0,57.7,30.12,South,182,2.0,8.1,55,0.00,,,0.00,meteobridge,2013-10-03 18:24:00,
2013-10-03 14:29:00,74.5,57.7,30.12,South,185,2.9,8.1,56,0.00,,,0.00,meteobridge,2013-10-03 18:29:00,
2013-10-03 14:34:00,74.1,57.9,30.12,SE,125,4.0,4.0,57,0.00,,,0.00,meteobridge,2013-10-03 18:34:00,
2013-10-03 14:39:00,74.5,58.3,30.12,SSE,152,2.0,6.9,57,0.00,,,0.00,meteobridge,2013-10-03 18:39:00,
2013-10-03 14:45:00,74.7,57.4,30.12,South,182,0.9,6.0,55,0.00,,,0.00,meteobridge,2013-10-03 18:45:00,
2013-10-03 14:50:00,74.5,58.3,30.12,East,94,0.9,2.0,57,0.00,,,0.00,meteobridge,2013-10-03 18:50:00,
2013-10-03 14:55:00,74.7,58.5,30.12,SSE,157,0.0,0.9,57,0.00,,,0.00,meteobridge,2013-10-03 18:55:00,
2013-10-03 15:00:00,75.2,59.4,30.12,SSE,166,0.0,4.0,58,0.00,,,0.00,meteobridge,2013-10-03 19:00:00,
2013-10-03 15:05:00,75.7,58.5,30.12,South,188,2.9,2.9,55,0.00,,,0.00,meteobridge,2013-10-03 19:05:00,
2013-10-03 15:10:00,75.7,59.0,30.12,SSE,159,0.0,4.9,56,0.00,,,0.00,meteobridge,2013-10-03 19:10:00,
2013-10-03 15:15:00,75.7,58.5,30.11,SSW,194,2.0,2.9,55,0.00,,,0.00,meteobridge,2013-10-03 19:15:00,
2013-10-03 15:20:00,75.4,59.5,30.11,SSE,159,0.9,4.0,58,0.00,,,0.00,meteobridge,2013-10-03 19:20:00,
2013-10-03 15:25:00,75.4,59.5,30.11,SSE,160,0.0,6.0,58,0.00,,,0.00,meteobridge,2013-10-03 19:25:00,
2013-10-03 15:30:00,75.4,58.6,30.11,SSE,160,2.0,6.0,56,0.00,,,0.00,meteobridge,2013-10-03 19:30:00,
2013-10-03 15:35:00,75.6,58.3,30.11,SSE,148,2.0,6.0,55,0.00,,,0.00,meteobridge,2013-10-03 19:35:00,
2013-10-03 15:40:00,75.7,58.5,30.11,SSE,163,6.0,6.0,55,0.00,,,0.00,meteobridge,2013-10-03 19:40:00,
2013-10-03 15:45:00,75.9,59.2,30.11,South,189,4.9,4.9,56,0.00,,,0.00,meteobridge,2013-10-03 19:45:00,
2013-10-03 15:50:00,75.7,58.5,30.11,South,173,4.9,4.9,55,0.00,,,0.00,meteobridge,2013-10-03 19:50:00,
2013-10-03 15:55:00,75.4,57.6,30.11,SSE,157,2.0,8.1,54,0.00,,,0.00,meteobridge,2013-10-03 19:55:00,
2013-10-03 16:00:00,74.8,56.5,30.11,SSE,159,2.0,6.9,53,0.00,,,0.00,meteobridge,2013-10-03 20:00:00,
2013-10-03 16:05:00,74.5,57.2,30.11,South,179,2.0,4.9,55,0.00,,,0.00,meteobridge,2013-10-03 20:05:00,
2013-10-03 16:11:00,74.1,56.5,30.10,South,169,2.0,4.0,54,0.00,,,0.00,meteobridge,2013-10-03 20:11:00,
2013-10-03 16:16:00,73.9,57.7,30.11,ESE,109,0.0,4.0,57,0.00,,,0.00,meteobridge,2013-10-03 20:16:00,
2013-10-03 16:21:00,73.8,59.0,30.11,SSW,196,0.0,0.9,60,0.00,,,0.00,meteobridge,2013-10-03 20:21:00,
2013-10-03 16:26:00,73.8,58.1,30.11,South,182,0.0,2.0,58,0.00,,,0.00,meteobridge,2013-10-03 20:26:00,
2013-10-03 16:31:00,73.6,58.8,30.10,SSW,209,2.0,6.0,60,0.00,,,0.00,meteobridge,2013-10-03 20:31:00,
2013-10-03 16:36:00,73.2,58.5,30.10,SSE,167,0.0,0.9,60,0.00,,,0.00,meteobridge,2013-10-03 20:36:00,
2013-10-03 16:41:00,73.0,57.9,30.10,SSE,160,4.9,4.9,59,0.00,,,0.00,meteobridge,2013-10-03 20:41:00,
2013-10-03 16:46:00,72.7,58.5,30.11,SE,136,0.0,2.0,61,0.00,,,0.00,meteobridge,2013-10-03 20:46:00,
2013-10-03 16:51:00,72.7,58.8,30.11,SW,214,2.9,2.9,62,0.00,,,0.00,meteobridge,2013-10-03 20:51:00,
2013-10-03 16:56:00,72.7,58.8,30.11,SSW,213,0.9,2.9,62,0.00,,,0.00,meteobridge,2013-10-03 20:56:00,
2013-10-03 17:02:00,72.5,59.5,30.11,SSE,147,0.0,0.9,64,0.00,,,0.00,meteobridge,2013-10-03 21:02:00,
2013-10-03 17:07:00,72.3,59.5,30.11,SSE,147,0.0,0.0,64,0.00,,,0.00,meteobridge,2013-10-03 21:07:00,
2013-10-03 17:12:00,72.3,59.9,30.11,SE,130,0.0,2.0,65,0.00,,,0.00,meteobridge,2013-10-03 21:12:00,
2013-10-03 17:17:00,72.1,59.4,30.11,SE,132,0.0,4.0,64,0.00,,,0.00,meteobridge,2013-10-03 21:17:00,
2013-10-03 17:22:00,72.0,59.2,30.10,SE,132,0.0,2.0,64,0.00,,,0.00,meteobridge,2013-10-03 21:22:00,
2013-10-03 17:27:00,71.8,59.4,30.11,WSW,246,2.9,4.0,65,0.00,,,0.00,meteobridge,2013-10-03 21:27:00,
2013-10-03 17:33:00,71.6,59.2,30.11,SE,134,0.0,4.0,65,0.00,,,0.00,meteobridge,2013-10-03 21:33:00,
2013-10-03 17:38:00,71.4,59.5,30.11,SW,220,0.0,0.0,66,0.00,,,0.00,meteobridge,2013-10-03 21:38:00,
2013-10-03 17:43:00,71.2,59.7,30.11,SW,220,0.0,0.0,67,0.00,,,0.00,meteobridge,2013-10-03 21:43:00,
2013-10-03 17:48:00,71.2,59.7,30.11,SSW,199,0.0,0.9,67,0.00,,,0.00,meteobridge,2013-10-03 21:48:00,
2013-10-03 17:53:00,71.1,59.2,30.11,West,279,0.0,0.9,66,0.00,,,0.00,meteobridge,2013-10-03 21:53:00,
2013-10-03 17:58:00,70.9,59.7,30.11,West,279,0.0,0.0,68,0.00,,,0.00,meteobridge,2013-10-03 21:58:00,
2013-10-03 18:03:00,70.5,59.0,30.11,SSW,204,0.0,6.0,67,0.00,,,0.00,meteobridge,2013-10-03 22:03:00,
2013-10-03 18:08:00,70.3,58.5,30.12,SSW,204,0.0,0.0,66,0.00,,,0.00,meteobridge,2013-10-03 22:08:00,
2013-10-03 18:13:00,70.3,58.8,30.12,SSW,204,0.0,0.0,67,0.00,,,0.00,meteobridge,2013-10-03 22:13:00,
2013-10-03 18:18:00,70.2,58.6,30.11,SSW,204,0.0,0.0,67,0.00,,,0.00,meteobridge,2013-10-03 22:18:00,
2013-10-03 18:24:00,70.0,59.4,30.11,SSW,204,0.0,0.0,69,0.00,,,0.00,meteobridge,2013-10-03 22:24:00,
2013-10-03 18:29:00,69.6,58.1,30.11,SSW,204,0.0,0.0,67,0.00,,,0.00,meteobridge,2013-10-03 22:29:00,
2013-10-03 18:34:00,69.4,58.5,30.12,SE,138,0.0,0.0,68,0.00,,,0.00,meteobridge,2013-10-03 22:34:00,
2013-10-03 18:39:00,69.3,58.3,30.12,SE,138,0.9,2.0,68,0.00,,,0.00,meteobridge,2013-10-03 22:39:00,
2013-10-03 18:44:00,69.3,57.9,30.12,SE,138,0.0,0.9,67,0.00,,,0.00,meteobridge,2013-10-03 22:44:00,
2013-10-03 18:50:00,69.1,58.1,30.12,SE,138,0.0,0.0,68,0.00,,,0.00,meteobridge,2013-10-03 22:50:00,
2013-10-03 18:55:00,68.7,57.7,30.12,SE,138,0.0,0.0,68,0.00,,,0.00,meteobridge,2013-10-03 22:55:00,
2013-10-03 19:00:00,68.5,57.6,30.12,SE,138,0.0,0.0,68,0.00,,,0.00,meteobridge,2013-10-03 23:00:00,
2013-10-03 19:05:00,68.4,57.0,30.12,SE,138,0.9,0.9,67,0.00,,,0.00,meteobridge,2013-10-03 23:05:00,
2013-10-03 19:10:00,68.4,57.7,30.12,SE,138,0.0,0.0,69,0.00,,,0.00,meteobridge,2013-10-03 23:10:00,
2013-10-03 19:15:00,68.2,57.6,30.12,SE,138,0.9,0.9,69,0.00,,,0.00,meteobridge,2013-10-03 23:15:00,
2013-10-03 19:21:00,67.8,57.2,30.12,SE,138,0.0,0.0,69,0.00,,,0.00,meteobridge,2013-10-03 23:21:00,
2013-10-03 19:26:00,67.6,57.0,30.12,SE,138,0.9,0.9,69,0.00,,,0.00,meteobridge,2013-10-03 23:26:00,
2013-10-03 19:31:00,67.5,57.4,30.12,SE,138,0.0,0.9,70,0.00,,,0.00,meteobridge,2013-10-03 23:31:00,
2013-10-03 19:36:00,67.5,57.4,30.12,SE,138,0.9,0.9,70,0.00,,,0.00,meteobridge,2013-10-03 23:36:00,
2013-10-03 19:41:00,67.3,57.2,30.12,SE,138,0.0,0.0,70,0.00,,,0.00,meteobridge,2013-10-03 23:41:00,
2013-10-03 19:46:00,67.3,57.2,30.11,SE,138,0.0,0.0,70,0.00,,,0.00,meteobridge,2013-10-03 23:46:00,
2013-10-03 19:51:00,66.9,56.8,30.12,SE,138,0.0,0.0,70,0.00,,,0.00,meteobridge,2013-10-03 23:51:00,
2013-10-03 19:56:00,66.9,56.8,30.12,SE,138,0.0,0.0,70,0.00,,,0.00,meteobridge,2013-10-03 23:56:00,
2013-10-03 20:02:00,66.7,56.7,30.12,SE,138,0.0,0.0,70,0.00,,,0.00,meteobridge,2013-10-04 00:02:00,
2013-10-03 20:07:00,66.7,56.7,30.12,SE,138,0.0,0.9,70,0.00,,,0.00,meteobridge,2013-10-04 00:07:00,
2013-10-03 20:12:00,66.6,56.8,30.12,SE,138,0.0,0.0,71,0.00,,,0.00,meteobridge,2013-10-04 00:12:00,
2013-10-03 20:17:00,66.6,56.8,30.12,SE,138,0.0,4.0,71,0.00,,,0.00,meteobridge,2013-10-04 00:17:00,
2013-10-03 20:23:00,66.6,57.2,30.12,SE,138,0.0,0.0,72,0.00,,,0.00,meteobridge,2013-10-04 00:23:00,
2013-10-03 20:28:00,66.6,57.2,30.12,SE,138,0.0,0.0,72,0.00,,,0.00,meteobridge,2013-10-04 00:28:00,
2013-10-03 20:33:00,66.6,57.2,30.13,SE,138,0.0,0.9,72,0.00,,,0.00,meteobridge,2013-10-04 00:33:00,
2013-10-03 20:38:00,66.4,57.0,30.12,SE,138,0.0,0.9,72,0.00,,,0.00,meteobridge,2013-10-04 00:38:00,
2013-10-03 20:43:00,66.4,57.0,30.12,SE,138,0.0,0.0,72,0.00,,,0.00,meteobridge,2013-10-04 00:43:00,
2013-10-03 20:48:00,66.4,57.4,30.12,SE,138,0.0,0.0,73,0.00,,,0.00,meteobridge,2013-10-04 00:48:00,
2013-10-03 20:53:00,66.4,57.4,30.12,SE,138,0.9,0.9,73,0.00,,,0.00,meteobridge,2013-10-04 00:53:00,
2013-10-03 20:59:00,66.2,57.7,30.12,SE,138,0.0,0.0,74,0.00,,,0.00,meteobridge,2013-10-04 00:59:00,
2013-10-03 21:04:00,66.0,57.6,30.12,SE,138,0.0,0.0,74,0.00,,,0.00,meteobridge,2013-10-04 01:04:00,
2013-10-03 21:09:00,65.8,57.4,30.12,SE,138,0.0,0.0,74,0.00,,,0.00,meteobridge,2013-10-04 01:09:00,
2013-10-03 21:14:00,65.7,57.2,30.12,SE,138,0.0,0.0,74,0.00,,,0.00,meteobridge,2013-10-04 01:14:00,
2013-10-03 21:19:00,65.7,57.9,30.12,SE,138,0.0,0.9,76,0.00,,,0.00,meteobridge,2013-10-04 01:19:00,
2013-10-03 21:24:00,65.5,57.4,30.12,SE,138,0.0,0.0,75,0.00,,,0.00,meteobridge,2013-10-04 01:24:00,
2013-10-03 21:30:00,65.5,57.7,30.12,SE,138,0.0,0.0,76,0.00,,,0.00,meteobridge,2013-10-04 01:30:00,
2013-10-03 21:35:00,65.3,57.6,30.13,SE,138,0.0,0.0,76,0.00,,,0.00,meteobridge,2013-10-04 01:35:00,
2013-10-03 21:40:00,65.1,57.4,30.13,SE,138,0.0,0.0,76,0.00,,,0.00,meteobridge,2013-10-04 01:40:00,
2013-10-03 21:45:00,64.9,57.2,30.13,SE,138,0.0,0.0,76,0.00,,,0.00,meteobridge,2013-10-04 01:45:00,
2013-10-03 21:51:00,64.8,57.0,30.13,SE,138,0.0,0.0,76,0.00,,,0.00,meteobridge,2013-10-04 01:51:00,
2013-10-03 21:56:00,64.6,56.8,30.13,SE,138,0.0,0.9,76,0.00,,,0.00,meteobridge,2013-10-04 01:56:00,
2013-10-03 22:01:00,64.4,57.0,30.13,SE,138,0.0,0.9,77,0.00,,,0.00,meteobridge,2013-10-04 02:01:00,
2013-10-03 22:06:00,64.2,56.8,30.13,SE,138,0.0,0.0,77,0.00,,,0.00,meteobridge,2013-10-04 02:06:00,
2013-10-03 22:11:00,64.0,57.0,30.13,SE,138,0.0,0.0,78,0.00,,,0.00,meteobridge,2013-10-04 02:11:00,
2013-10-03 22:16:00,63.9,56.8,30.13,SE,138,0.0,0.0,78,0.00,,,0.00,meteobridge,2013-10-04 02:16:00,
2013-10-03 22:21:00,63.9,57.2,30.13,SE,138,0.0,0.0,79,0.00,,,0.00,meteobridge,2013-10-04 02:21:00,
2013-10-03 22:27:00,63.7,56.7,30.14,SE,138,0.0,0.0,78,0.00,,,0.00,meteobridge,2013-10-04 02:27:00,
2013-10-03 22:32:00,63.3,56.3,30.14,SE,138,0.0,0.0,78,0.00,,,0.00,meteobridge,2013-10-04 02:32:00,
2013-10-03 22:37:00,63.1,56.5,30.13,SE,138,0.0,0.0,79,0.00,,,0.00,meteobridge,2013-10-04 02:37:00,
2013-10-03 22:42:00,63.0,56.7,30.13,SE,138,0.0,0.0,80,0.00,,,0.00,meteobridge,2013-10-04 02:42:00,
2013-10-03 22:47:00,63.0,56.7,30.13,SE,138,0.0,0.0,80,0.00,,,0.00,meteobridge,2013-10-04 02:47:00,
2013-10-03 22:53:00,62.8,56.5,30.13,SE,138,0.0,0.0,80,0.00,,,0.00,meteobridge,2013-10-04 02:53:00,
2013-10-03 22:58:00,62.6,56.3,30.13,SE,138,0.0,0.0,80,0.00,,,0.00,meteobridge,2013-10-04 02:58:00,
2013-10-03 23:03:00,62.4,56.5,30.13,SE,138,0.0,0.9,81,0.00,,,0.00,meteobridge,2013-10-04 03:03:00,
2013-10-03 23:08:00,62.4,56.5,30.13,SE,138,0.0,0.0,81,0.00,,,0.00,meteobridge,2013-10-04 03:08:00,
2013-10-03 23:13:00,62.2,56.3,30.13,SE,138,0.0,0.0,81,0.00,,,0.00,meteobridge,2013-10-04 03:13:00,
2013-10-03 23:18:00,62.2,56.3,30.13,SE,138,0.0,0.0,81,0.00,,,0.00,meteobridge,2013-10-04 03:18:00,
2013-10-03 23:24:00,62.2,56.7,30.13,SE,138,0.0,0.0,82,0.00,,,0.00,meteobridge,2013-10-04 03:24:00,
2013-10-03 23:29:00,62.2,57.0,30.13,SE,138,0.0,0.0,83,0.00,,,0.00,meteobridge,2013-10-04 03:29:00,
2013-10-03 23:34:00,62.4,56.8,30.13,SE,138,0.0,0.0,82,0.00,,,0.00,meteobridge,2013-10-04 03:34:00,
2013-10-03 23:39:00,62.4,56.8,30.13,SE,138,0.0,0.0,82,0.00,,,0.00,meteobridge,2013-10-04 03:39:00,
2013-10-03 23:44:00,62.4,56.8,30.13,SE,138,0.0,0.0,82,0.00,,,0.00,meteobridge,2013-10-04 03:44:00,
2013-10-03 23:49:00,62.2,56.7,30.13,SE,138,0.0,0.0,82,0.00,,,0.00,meteobridge,2013-10-04 03:49:00,
2013-10-03 23:55:00,62.1,56.8,30.13,SE,138,0.0,0.0,83,0.00,,,0.00,meteobridge,2013-10-04 03:55:00,